EW5239 Weather Reports


time (UTC)temp
C
wind
direction
speed
KPH
gust
KPH
rain 1hr
cm
rain 24hr
cm
rain mn
cm
humidity
%
barometer
mb
20260904070508 18 258 14.5 20.9 0.00 0.00 0.00 85 1011.4
20260904070453 18 264 16.1 22.5 0.00 0.10 0.00 85 1013.4
20260904065958 18 252 12.9 22.5 0.00 0.10 0.00 85 1013.3
20260904065508 18 262 12.9 24.1 0.00 0.00 0.00 86 1011.3
20260904065453 17 258 12.9 24.1 0.00 0.10 0.00 85 1013.3
20260904065008 18 271 14.5 24.1 0.00 0.00 0.00 86 1011.6
20260904064952 17 253 14.5 24.1 0.00 0.10 0.00 86 1013.5
20260904064507 17 249 14.5 24.1 0.00 0.00 0.00 86 1011.6
20260904064453 17 264 12.9 24.1 0.00 0.10 0.00 86 1013.6
20260904064008 17 245 14.5 20.9 0.00 0.00 0.00 86 1011.6
20260904063953 17 263 14.5 22.5 0.00 0.10 0.00 86 1013.5
20260904063453 17 254 16.1 22.5 0.00 0.10 0.00 86 1013.6
20260904063008 17 284 17.7 24.1 0.00 0.00 0.00 86 1011.9
20260904062953 17 266 17.7 22.5 0.00 0.10 0.00 86 1013.7
20260904062508 17 269 16.1 24.1 0.00 0.00 0.00 86 1011.7
20260904062452 17 257 14.5 22.5 0.00 0.10 0.00 86 1013.5
20260904062007 17 256 12.9 16.1 0.00 0.00 0.00 86 1011.5
20260904061952 17 247 14.5 17.7 0.00 0.10 0.00 86 1013.5
20260904061453 17 253 14.5 19.3 0.00 0.10 0.00 86 1013.6
20260904061008 17 298 14.5 19.3 0.00 0.00 0.00 86 1011.6
20260904060953 17 247 14.5 19.3 0.00 0.10 0.00 86 1013.2
20260904060507 17 290 12.9 14.5 0.00 0.00 0.00 86 1011.3
20260904060008 17 244 11.3 16.1 0.00 0.00 0.00 86 1011.2
20260904055958 17 256 11.3 16.1 0.00 0.10 0.00 86 1013.3
20260904055452 17 283 12.9 16.1 0.00 0.10 0.00 87 1013.5
20260904055008 17 278 11.3 12.9 0.00 0.00 0.00 86 1011.5
20260904054508 17 242 9.7 12.9 0.00 0.00 0.00 87 1011.4
20260904054453 17 275 9.7 12.9 0.00 0.10 0.00 87 1013.4
20260904054008 16 226 9.7 12.9 0.00 0.00 0.00 88 1011.3
20260904053953 16 246 9.7 12.9 0.00 0.10 0.00 88 1013.4
20260904053507 16 254 9.7 14.5 0.00 0.00 0.00 88 1011.4
20260904053453 16 232 9.7 12.9 0.00 0.10 0.00 88 1013.5